www.pogodaiklimat.ru

Архив погоды в Барановичах (Брестская область, Беларусь)

Время
(UTC), дата
21 18.07
00 19.07
03 19.07
06 19.07
09 19.07
12 19.07
15 19.07
18 19.07
21 19.07
00 20.07
03 20.07
06 20.07
09 20.07
12 20.07
15 20.07
18 20.07
21 20.07
00 21.07
03 21.07
06 21.07
09 21.07
12 21.07
15 21.07
18 21.07
21 21.07
00 22.07
03 22.07
06 22.07
09 22.07
12 22.07
15 22.07
18 22.07
21 22.07
00 23.07
03 23.07
06 23.07
09 23.07
12 23.07
15 23.07
18 23.07
21 23.07
00 24.07
03 24.07
06 24.07
09 24.07
12 24.07
15 24.07
18 24.07
21 24.07
00 25.07
03 25.07
06 25.07
09 25.07
12 25.07
15 25.07
Ветер
(напр.,м/с)
Видим. Явления Облачность Т
(С)
Тd
(С)
f
(%)
Тe
(С)
Тes
(С)
Комфортность P
(гПа)
Po
(гПа)
Тmin
(С)
Tmax
(С)
R
(мм)
R24
(мм)
S
(см)
штиль 0 10 км 3/0
[Ac trans]
+18.7 +16.1 85 +20 +20 тепло 1020.1 997.5
СЗ 2 10 км ясно +16.5 +14.1 86 +17 +17 тепло 1020.5 997.7
штиль 0 10 км 4/0
[Ci fib]
+15.3 +13.5 89 +15 +15 тепло 1020.7 997.8
З 3 10 км 3/3 600 м
[Sc]
+18.5 +14.0 75 +19 +23 тепло 1020.5 997.8 +15.1
З 3 10 км 3/3 1000 м
[Cu hum]
+21.4 +13.1 59 +24 +32 комфорт 1019.5 997.1
СЗ 4 10 км 4/4 1000 м
[Cu hum]
+24.2 +13.7 52 +26 +32 жарко 1018.4 996.3
СЗ 3 10 км 3/3 1000 м
[Cu hum]
+24.8 +12.4 46 +27 +29 жарко 1016.7 994.7
СЗ 2 10 км ясно +21.7 +12.8 57 +24 +24 комфорт 1016.5 994.2 +25.2
СЗ 2 10 км ясно +16.7 +12.6 77 +17 +17 тепло 1016.7 994.0
СЗ 1 10 км ясно +14.1 +12.0 87 +14 +14 по сезону 1016.9 993.9
З 1 10 км ясно +13.4 +11.6 89 +14 +14 прохладно 1016.2 993.2
СЗ 2 10 км 4/0
[Ac trans]
+17.4 +13.7 79 +18 +22 по сезону 1015.1 992.5 +12.5
СВ 2 10 км 6/4 1000 м
[Cu hum Ci fib]
+20.9 +13.6 63 +24 +32 комфорт 1014.4 992.1
С 3 10 км 8/5 1000 м
[Cu hum Ci sp]
+23.8 +12.4 49 +26 +31 жарко 1013.0 991.0
СЗ 2 10 км 6/6 1000 м
[Cu hum]
+23.9 +11.6 46 +25 +27 комфорт 1011.7 989.7
штиль 0 10 км ясно +22.9 +12.5 52 +26 +26 жарко 1011.6 989.5 +25.1
С 1 10 км ясно +17.3 +14.2 82 +18 +18 по сезону 1012.2 989.6
штиль 0 10 км ясно +14.3 +13.8 97 +14 +14 по сезону 1012.2 989.4
штиль 0 10 км дымка 4/0
[Ci fib]
+13.1 +12.8 98 +13 +13 прохладно 1012.2 989.3
штиль 0 10 км 3/0
[Ci fib]
+21.9 +14.8 64 +25 +33 комфорт 1011.5 989.3 +12.7
З 1 10 км 8/8 1000 м
[Cu hum]
+25.0 +13.5 49 +27 +31 жарко 1010.7 988.8
З 2 10 км 8/8 600 м
[Cu hum]
+26.1 +11.4 40 +27 +30 жарко 1010.2 988.4
З 2 10 км 6/6 1000 м
[Cu hum]
+26.7 +11.2 38 +28 +30 жарко 1009.3 987.6
штиль 0 10 км 4/0
[Ac trans]
+24.6 +12.5 47 +26 +26 жарко 1009.7 987.8 +28.1
штиль 0 10 км ясно +17.6 +14.1 80 +18 +18 по сезону 1010.6 988.1
штиль 0 10 км ясно +15.4 +14.4 94 +15 +15 по сезону 1011.3 988.6
штиль 0 10 км 8/0
[Ac trans]
+15.0 +14.0 94 +15 +15 по сезону 1011.2 988.4
Ю 1 10 км в посл. час ливневой дождь 9/6 1000 м
[Cu hum Ac trans]
+19.9 +16.0 78 +23 +25 комфорт 1011.4 989.1 +14.8 0.3
Ю 2 10 км 6/6 1000 м
[Cu hum]
+24.9 +15.5 56 +28 +34 жарко 1011.0 989.1
З 3 10 км гроза без осадков 8/8 1000 м
[Cb calv]
+26.9 +14.6 47 +29 +32 жарко 1010.5 988.8
штиль 0 10 км {гроза} 6/6 1000 м
[Cu med, cong]
+27.9 +13.8 42 +30 +32 жарко 1010.5 988.9
Ю 1 10 км {гроза} 3/0
[Ac trans]
+24.1 +16.4 62 +28 +28 душно 1011.6 989.6 +28.1
штиль 0 10 км ясно +19.5 +16.5 83 +21 +21 комфорт 1012.8 990.4
штиль 0 10 км ясно +16.7 +15.7 94 +17 +17 тепло 1013.3 990.6
штиль 0 6000 м дымка ясно +15.3 +15.0 98 +15 +15 по сезону 1013.6 990.8
штиль 0 10 км 4/0
[Ac trans Ci fib]
+24.4 +16.6 62 +28 +34 душно 1012.8 990.8 +15.0
В 2 10 км 6/3 1000 м
[Cu hum Ac trans Ci fib]
+27.1 +16.1 51 +30 +38 душно 1012.5 990.8
ЮЗ 2 10 км 9/6 1000 м
[Cu med, cong Ac trans]
+22.6 +15.9 66 +27 +30 душно 1013.1 991.0
З 2 10 км 8/0
[Ac trans]
+25.2 +17.1 61 +29 +31 душно 1012.1 990.2
штиль 0 10 км 9/5 600 м
[Sc Ac trans]
+23.2 +18.9 77 +29 +29 душно 1012.8 990.7 +28.3
З 1 10 км 8/8 600 м
[Sc]
+21.4 +18.6 84 +26 +26 душно 1012.7 990.5
С 1 10 км 9/9 600 м
[Sc]
+19.4 +17.9 91 +23 +23 комфорт 1012.5 990.1
штиль 0 10 км 8/4 600 м
[Sc Ac trans]
+19.0 +17.8 93 +20 +21 тепло 1012.1 989.7
ЮВ 2 10 км 9/0
[Ac trans]
+21.7 +16.6 73 +26 +28 душно 1011.8 989.6 +18.6
ЮЗ 3 10 км 9/8 1000 м
[Cu med, cong Ac trans]
+23.5 +17.0 67 +27 +29 душно 1011.3 989.3
штиль 0 10 км гроза без осадков 9/8 1000 м
[Cb calv Ac trans]
+22.2 +18.4 79 +27 +30 душно 1011.6 989.5
СЗ 2 10 км {гроза, ливн. дождь} 9/0
[Ac trans]
+22.3 +17.7 75 +27 +29 душно 1010.4 988.3
СЗ 2 10 км {гроза, ливн. дождь} 9/0
[Ac trans]
+20.2 +17.8 86 +24 +24 комфорт 1010.6 988.3 +24.8 1
СВ 2 10 км 9/0
[Ac trans]
+20.0 +17.2 84 +23 +23 комфорт 1010.2 987.9
С 3 10 км 9/0
[Ac trans]
+18.7 +16.3 86 +20 +20 тепло 1009.2 986.8
штиль 0 10 км 8/0
[Ac trans]
+17.6 +16.3 92 +18 +18 тепло 1009.0 986.5
штиль 0 10 км 10/8 300 м
[Sc Ac und]
+19.8 +17.0 84 +22 +23 комфорт 1009.2 986.9 +17.4
ЮВ 1 10 км 9/8 600 м
[Cu hum Ac trans]
+20.6 +16.6 78 +25 +27 комфорт 1008.9 986.7
ЮВ 4 3500 м гроза, ливневой дождь 9/1 600 м
[Cb cap]
+22.8 +17.7 73 +28 +32 душно 1008.5 986.5
З 1 {12} 10 км {гроза, ливн. дождь} 8/3 600 м
[Cb calv Ac trans]
+19.1 +16.3 84 +22 +24 комфорт 1009.4 987.0
Местоположение метеостанции Барановичи (Брестская область, Беларусь): широта 53.13 долгота 25.97 высота над уровнем моря 193 м.
В архиве по умолчанию представлена погода в Барановичах за последнюю неделю. Архивные данные за месяц целиком и за предыдущие месяцы, начиная с января 2011 года, Вы можете получить, выбрав интересующий диапазон дат из раскрывающегося списка и нажав кнопку "Найти!".
*Определитесь, кто Вы:
Внимание! Время в таблицах - всемирное. Для получения местного времени необходимо прибавить поправку, которая равна 3 ч.
Некоторые строки с данными для отдельных станций могут быть выделены курсивом. Это означает, что фактические данные отсутствуют по различным причинам, а приведенные значения являются расчетными модельными данными для данного пункта наблюдений.
Смотрите также архив погоды в соседних городах и на ближайших метеорологических станциях:
Партнеры нашего сайта:      
Пояснения к столбцам:
  • Ветер - указаны скорость ветра в м/с - средняя за 10 мин, порывы в срок и между сроками (в фигурных скобках) и направление, откуда дует ветер: С - северный,
  • СВ - северо-восточный, В - восточный, ЮВ - юго-восточный, Ю - южный, ЮЗ - юго-западный, З - западный, СЗ - северо-западный.
  • Видимость - горизонтальная дальность видимости в метрах или километрах. При видимости от 1 до 10 км при отсутствии осадков обычно наблюдается дымка, при ухудшении видимости до 1 км и менее - туман. В сухую погоду видимость может ухудшаться дымом, пылью или мглою.
  • Явления - указаны атмосферные явления, наблюдавшиеся в срок или в последний час перед сроком; фигурными скобками обозначены явления, наблюдавшиеся между сроками (за 1-3 часа до срока); квадратными скобками обозначены град или гололедные отложения с указанием их диаметра в мм.
  • Облачность - указаны через наклонную черту общая и нижняя облачность в баллах и высота нижней границы облаков в метрах; квадратными скобками обозначены формы облаков: Ci - перистые, Cs - перисто-слоистые, Cc - перисто-кучевые, Ac - высококучевые, As - высокослоистые, Sc - слоисто-кучевые, Ns - слоисто-дождевые, Cu - кучевые, Cb - кучево-дождевые. Подробнее классификацию облаков см. в Атласе облаков (PDF).
  • T - Температура воздуха - температура, измеренная на высоте 2 м над землей.
  • Td - Температура точки росы - температура, при понижении до которой содержащийся в воздухе водяной пар достигнет насыщения.
  • f - Относительная влажность воздуха - влажноcть воздуха, измеренная на высоте 2 м над землей.
  • Te - Эффективная температура - температура, которую ощущает одетый по сезону человек в тени. Характеристика душности погоды. При расчете учитывается влияние влажности воздуха и скорости ветра на теплоощущения человека.
  • Tes - Эффективная температура на солнце - температура, которую ощущает человек, с поправкой на солнечный нагрев. Характеристика знойности погоды. Зависит от высоты солнца над горизонтом, облачности и скорости ветра. Ночью, в пасмурную погоду, а также при ветре 12 м/с и более поправка равна нулю.
  • P - Атмосферное давление - приведенное к уровню моря атмосферное давление.
  • Po - Атмосферное давление - измеренное на уровне метеостанции атмосферное давление.
  • Tmin - Минимальная температура - минимум температуры воздуха на высоте 2 м над землей.
  • Tmax - Максимальная температура - максимум температуры воздуха на высоте 2 м над землей.
  • R - Количество осадков - Количество выпавших осадков за период времени, мм. При наведении курсора мыши на число - период времени, за который выпало указанное количество осадков.
  • R24 - Количество осадков - Количество выпавших осадков за 24 часа, мм.
  • S - Снежный покров - Высота снежного покрова, см. При наведении курсора мыши на число - состояние снежного покрова и степень покрытия местности в баллах.